Regional Weather Roundup
Issued by NWS

Home | Current Version | Previous Version | Text Only | Print | Product List | Glossary Off
Versions: 1 2 3 4 5 6 7 8 9 10 11 12 13 14 15 16 17 18 19 20 21 22 23 24 25 26 27 28 29 30 31 32 33 34 35 36 37 38 39 40 41 42 43 44 45 46 47 48 49 50

000
ASUS43 KIND 220309
RWRIN

WEATHER ROUNDUP FOR INDIANA
NATIONAL WEATHER SERVICE INDIANAPOLIS IN
1000 PM EST SAT JAN 21 2017

NOTE: "FAIR" INDICATES FEW OR NO CLOUDS BELOW 12,000 FEET WITH NO
SIGNIFICANT WEATHER AND/OR OBSTRUCTIONS TO VISIBILITY.

* - STATION DOES NOT REPORT WEATHER SUCH AS PRECIPITATION OR FOG.

+ - STATION NOT QUALITY CONTROLLED BY THE NATIONAL WEATHER SERVICE.
    USE DATA WITH CAUTION...ESPECIALLY DEWPOINT AND RELATIVE
    HUMIDITY OBSERVATIONS.

INZ001>003-010>013-019-020-220400-
NORTHWEST INDIANA

CITY           SKY/WX    TMP DP  RH WIND       PRES   REMARKS
GARY /AIRPORT/ PTCLDY    39  39 100 CALM      29.60R
KNOX *+        PTCLDY    46  39  76 CALM      29.59R
LA PORTE +     FOG       40  40  99 CALM      29.59R VSB 1/4
MICHIGAN CITY+ FOG       43  43 100 CALM      29.59R VSB 1/4
MONTICELLO +   PTCLDY    52  47  83 S3        29.59R
VALPARAISO     FOG       43  43 100 CALM      29.59R VSB 1/4

$$

LMZ046-743>745-220400-
SOUTHERN LAKE MICHIGAN

STATION/POSITION TIME  TEMP    WIND        PRES    WAVE
                       AIR SEA DIR/SP/G            HT
                 (UTC) (F)     (DEG/KT/KT) (MB)    (FT)
BURNS HARBOR     0300   48     280/  4/ 10 1002.7
MICHIGAN CITY    0240   53     180/  5/  5   N/A

$$

INZ004-005-014>016-021>024-220400-
NORTH CENTRAL INDIANA

CITY           SKY/WX    TMP DP  RH WIND       PRES   REMARKS
GOSHEN         FOG       45  43  93 S3        29.59R VSB 3/4
LOGANSPORT +   CLOUDY    46  46 100 SW3       29.60R
PERU/GRISSOM   MOCLDY    49  49 100 S3        29.58R
ROCHESTER +    FOG       45  45 100 CALM      29.60S VSB 1/2
SOUTH BEND     PTCLDY    41  41 100 W3        29.60R
WARSAW +       MOCLDY    48  46  93 CALM      29.60R FOG

$$

INZ006>009-017-018-025>027-220400-
NORTHEAST INDIANA

CITY           SKY/WX    TMP DP  RH WIND       PRES   REMARKS
ANGOLA *+      MOCLDY    45  43  93 CALM      29.60R VSB 1
AUBURN +       FOG       46  45  93 CALM      29.62R VSB 3/4
FORT WAYNE     MOCLDY    50  47  89 S7        29.62R
HUNTINGTON +   MOCLDY    51  50  96 CALM      29.60S
KENDALLVILLE + PTCLDY    50  50 100 S5        29.61R

$$

INZ028-029-035-036-043>045-051>053-220400-
WEST CENTRAL INDIANA

CITY           SKY/WX    TMP DP  RH WIND       PRES   REMARKS
CRAWFORDSVL +  PTCLDY    49  49 100 S6        29.60R
GREENCASTLE +  PTCLDY    52  50  93 CALM      29.61R
LAFAYETTE      PTCLDY    48  47  96 CALM      29.58R
TERRE HAUTE    PTCLDY    54  48  80 SE7       29.59R

$$

INZ030>032-037>040-046>048-054>057-064-065-220400-
CENTRAL INDIANA

CITY           SKY/WX    TMP DP  RH WIND       PRES   REMARKS
CP ATTERBURY + CLOUDY    54  48  82 CALM      29.63R
COLUMBUS       CLEAR     52  50  93 CALM      29.63R
FISHERS *+     CLOUDY    54  52  94 S3        29.62R
FRANKFORT +    MOCLDY    51  49  93 CALM      29.61S
GREENWOOD *+   PTCLDY    55  51  86 SE3       29.62R
INDIANAPOLIS   CLOUDY    54  48  80 SE7       29.61R
-EAGLE CREEK   PTCLDY    54  49  83 S3        29.60R
KOKOMO +       CLOUDY    51  49  92 S8        29.61R
MARION +       CLOUDY    52  48  87 S5        29.62R
MT COMFORT *+  PTCLDY    54  50  87 S6        29.62R
SHELBYVILLE    MOCLDY    52  48  86 SE6       29.62R
ZIONSVILLE +   CLOUDY    53  49  86 CALM      29.61R

$$

INZ033-034-041-042-049-050-058-059-220400-
EAST CENTRAL INDIANA

CITY           SKY/WX    TMP DP  RH WIND       PRES   REMARKS
MUNCIE         CLOUDY    56  51  84 S6        29.62R

$$

INZ060-061-067>069-081>083-085>088-220400-
SOUTHWEST INDIANA

CITY           SKY/WX    TMP DP  RH WIND       PRES   REMARKS
EVANSVILLE     CLEAR     56  49  77 CALM      29.61S
HUNTINGBURG *+ PTCLDY    58  49  72 S3        29.62R
WASHINGTON +   CLOUDY    54  50  89 S6        29.60R

$$

INZ062-063-066-070>080-084-089>092-220400-
SOUTH CENTRAL AND SOUTHEAST INDIANA

CITY           SKY/WX    TMP DP  RH WIND       PRES   REMARKS
BLOOMINGTON    MOCLDY    57  48  72 SE3       29.61R
MADISON *+     MOCLDY    52  48  87 CALM      29.66R
NORTH VERNON + PTCLDY   N/A N/A N/A SE3       29.64R

$$





USA.gov is the U.S. government's official web portal to all federal, state and local government web resources and services.